Location: Bermeries
(50.2863°N, 3.7551°E)
Time: 15:08:50
(UTC+00:00)

Meteor 1-12 Rocket - Pass Details

Date: 23 May 2024
Orbit: 855 x 925 km, 81.2° (Epoch: 16 June)

Event Time Altitude Azimuth Distance (km) Brightness Sun altitude
Rises 00:00:25 0° 347° (NNW) 3,510 8.8 -19.0°
Reaches altitude 10° 00:02:52 10° 348° (NNW) 2,577 7.8 -18.9°
Maximum altitude 00:08:46 90° 67° (ENE) 914 4.3 -18.8°
Enters shadow 00:11:49 31° 169° (S) 1,552 5.0 -18.8°
